Location: Big Meadows
(38.5260°N, 78.4400°W)
Time: 08:28:03
(UTC-04:00)

Amateur Radio Satellites - All Passes

Search period start: 29 March 2015 07:58
Search period end: 30 March 2015 07:58
Location: Big Meadows, 38.5260°N, 78.4400°W

Satellite Date Start Highest point End Downlink Frequencies (MHz)
Time Altitude Azimuth
CUBESAT XI-V 29 Mar 08:04:41 08:08:07 19° 268° (W) 08:11:25 437.345
GONETS M04 29 Mar 08:26:06 08:34:21 45° 271° (W) 08:42:29
DANDE 29 Mar 08:35:38 08:39:39 60° 80° (E) 08:45:06 436.750
BRITE-PL 29 Mar 08:42:42 08:45:29 17° 93° (E) 08:48:30 437.365/2234.400
STRAND 1 29 Mar 08:43:51 08:47:10 16° 269° (W) 08:50:14 437.568
HO-68 29 Mar 08:57:08 09:02:35 24° 92° (E) 09:08:16 435.675
VERMONT LUNAR 29 Mar 08:58:00 09:01:19 61° 4° (N) 09:04:40 437.305
CUTE-I 29 Mar 09:03:00 09:06:33 18° 296° (WNW) 09:09:54 437.470
Cubesat XI-IV 29 Mar 09:03:06 09:06:38 18° 296° (WNW) 09:09:58 437.490
COMPASS 1 29 Mar 09:05:37 09:06:31 11° 88° (E) 09:07:41 437.405
DOVE 4 29 Mar 09:20:59 09:24:15 21° 94° (E) 09:27:45 437.250
GOMX 1 29 Mar 09:30:09 09:34:10 39° 98° (E) 09:38:24 467.674
CUSAT 1 29 Mar 09:31:29 09:35:20 27° 263° (W) 09:40:05 437.405
CANX-2 29 Mar 09:32:04 09:36:05 38° 97° (E) 09:40:07 2200.000
PHONESAT 2.4 29 Mar 09:35:42 09:39:12 61° 2° (N) 09:42:43 2401.200-2431.200
CUTE 1.7 + AOD 2 29 Mar 09:45:55 09:50:07 50° 99° (E) 09:54:19 437.475
DELFI C3 29 Mar 09:55:03 09:56:26 12° 89° (E) 09:58:02 145.870
UNISAT 6 29 Mar 10:06:46 10:09:41 19° 68° (ENE) 10:12:45 437.425
AAUSAT CUBESAT 2 29 Mar 10:11:31 10:15:42 57° 100° (E) 10:19:52 437.432
POLYITAN 1 29 Mar 10:12:47 10:13:47 11° 65° (ENE) 10:15:00 437.675
SEEDS 29 Mar 10:15:31 10:19:51 87° 276° (W) 10:24:07 437.485
TIGRISAT 29 Mar 10:16:42 10:20:02 23° 69° (ENE) 10:23:27 435.000
DX 1 29 Mar 10:17:57 10:18:40 10° 89° (E) 10:19:42 434.975-435.025
BRITE-PL 29 Mar 10:20:22 10:24:11 34° 287° (WNW) 10:28:08 437.365/2234.400
DANDE 29 Mar 10:21:44 10:23:02 11° 265° (W) 10:24:03 436.750
BEESAT 2 29 Mar 10:30:28 10:34:14 36° 115° (ESE) 10:38:05 435.950
Oscar 11 29 Mar 10:34:51 10:39:05 48° 99° (E) 10:43:18 145.826/435.025
VERMONT LUNAR 29 Mar 10:35:45 10:39:04 59° 201° (SSW) 10:42:24 437.305
COMPASS 1 29 Mar 10:38:28 10:42:40 57° 285° (WNW) 10:46:49 437.405
CINEMA 3 29 Mar 10:39:02 10:43:28 81° 102° (ESE) 10:48:06 145.822/145.860
HO-68 29 Mar 10:43:44 10:50:50 61° 290° (WNW) 10:57:51 435.675
FUNcube-1 29 Mar 10:44:59 10:48:53 32° 96° (E) 10:52:55 145.935
ANTELSAT 29 Mar 10:45:57 10:50:04 51° 74° (ENE) 10:54:16 437.575/2403.000
QB50P1 29 Mar 10:47:28 10:50:58 27° 71° (ENE) 10:54:33 145.935-145.965
UWE-3 29 Mar 10:48:21 10:52:34 44° 98° (E) 10:56:55 435.000/436.395/437.385
DUCHIFAT 1 29 Mar 10:49:26 10:52:58 27° 71° (ENE) 10:56:34 145.980
CUBEBUG 2 29 Mar 10:52:43 10:57:07 61° 100° (E) 11:01:38 437.445
VELOX 1 29 Mar 10:56:01 10:57:45 12° 90° (E) 10:59:44 145.980
ZACube-1 29 Mar 10:57:32 11:01:45 45° 99° (E) 11:06:04 437.345
DOVE 4 29 Mar 10:58:14 11:02:06 32° 288° (WNW) 11:06:05 437.250
AISAT 29 Mar 11:00:03 11:02:24 15° 91° (E) 11:04:57 437.250
QB50P2 29 Mar 11:01:44 11:05:39 39° 73° (ENE) 11:09:38 145.880/145.840
50 SAT 29 Mar 11:05:09 11:07:36 16° 92° (E) 11:10:14 437.505
BEESAT 3 29 Mar 11:07:30 11:11:34 70° 302° (WNW) 11:15:42 437.485
CANX-2 29 Mar 11:08:48 11:11:46 18° 292° (WNW) 11:14:36 2200.000
GOMX 1 29 Mar 11:09:17 11:12:07 17° 291° (WNW) 11:14:53 467.674
PHONESAT 2.4 29 Mar 11:14:06 11:17:38 71° 199° (SSW) 11:21:10 2401.200-2431.200
CUTE 1.7 + AOD 2 29 Mar 11:23:21 11:25:40 14° 293° (WNW) 11:27:48 437.475
DELFI C3 29 Mar 11:27:59 11:31:58 49° 286° (WNW) 11:35:55 145.870
ESTCUBE 1 29 Mar 11:28:38 11:31:12 15° 91° (E) 11:33:57 437.505/2401.250
POPSAT HIP 1 29 Mar 11:30:14 11:34:28 85° 78° (ENE) 11:38:42 437.405
BUGSAT 1 29 Mar 11:30:44 11:34:51 60° 74° (ENE) 11:38:56 437.445
AIST 2 29 Mar 11:40:39 11:44:53 75° 119° (ESE) 11:49:11 435.215
NANOSAT C BR1 29 Mar 11:40:58 11:45:11 72° 258° (WSW) 11:49:24 145.865
UKube-1 29 Mar 11:41:08 11:45:29 84° 285° (WNW) 11:49:48 .
UNISAT 6 29 Mar 11:42:22 11:46:17 34° 263° (W) 11:50:12 437.425
POLYITAN 1 29 Mar 11:45:04 11:49:15 62° 259° (W) 11:53:26 437.675
AAUSAT CUBESAT 2 29 Mar 11:49:13 11:50:55 12° 294° (WNW) 11:52:22 437.432
HUMSAT D 29 Mar 11:50:14 11:54:30 89° 84° (E) 11:58:49 437.325/437.525
DX 1 29 Mar 11:51:08 11:55:25 61° 286° (WNW) 11:59:40 434.975-435.025
TIGRISAT 29 Mar 11:53:02 11:56:42 27° 265° (W) 12:00:20 435.000
BEESAT 2 29 Mar 12:09:18 12:12:31 21° 312° (NW) 12:15:41 435.950
Oscar 11 29 Mar 12:12:23 12:14:54 15° 293° (WNW) 12:17:15 145.826/435.025
VERMONT LUNAR 29 Mar 12:14:40 12:16:23 13° 214° (SW) 12:18:02 437.305
FUNcube-1 29 Mar 12:21:40 12:25:06 22° 290° (WNW) 12:28:27 145.935
QB50P1 29 Mar 12:23:26 12:26:51 23° 266° (W) 12:30:11 145.935-145.965
ANTELSAT 29 Mar 12:25:26 12:27:17 12° 271° (W) 12:28:54 437.575/2403.000
DUCHIFAT 1 29 Mar 12:25:27 12:28:49 22° 266° (W) 12:32:06 145.980
UWE-3 29 Mar 12:25:59 12:28:50 17° 292° (WNW) 12:31:34 435.000/436.395/437.385
VELOX 1 29 Mar 12:30:25 12:34:43 53° 287° (WNW) 12:39:00 145.980
CUBEBUG 1 29 Mar 12:30:55 12:35:14 69° 101° (E) 12:39:32 437.445
CUBEBUG 2 29 Mar 12:31:28 12:33:26 12° 294° (WNW) 12:35:11 437.445
TISAT 1 29 Mar 12:32:34 12:34:36 14° 91° (E) 12:36:52 437.305
ZACube-1 29 Mar 12:35:03 12:37:50 16° 292° (WNW) 12:40:28 437.345
AISAT 29 Mar 12:35:05 12:39:19 46° 287° (WNW) 12:43:31 437.250
HO-68 29 Mar 12:35:24 12:37:19 11° 307° (NW) 12:38:43 435.675
50 SAT 29 Mar 12:38:58 12:42:41 35° 287° (WNW) 12:46:22 437.505
QB50P2 29 Mar 12:39:10 12:41:48 16° 268° (W) 12:44:15 145.880/145.840
SPROUT 29 Mar 12:41:21 12:44:36 22° 94° (E) 12:47:58 437.525
PHONESAT 2.4 29 Mar 12:53:12 12:55:38 17° 213° (SSW) 12:58:02 2401.200-2431.200
ESTCUBE 1 29 Mar 13:04:04 13:08:24 45° 287° (WNW) 13:12:40 437.505/2401.250
YUBILEINY 29 Mar 13:15:57 13:22:57 29° 85° (E) 13:30:16 435.215
AIST 2 29 Mar 13:21:52 13:24:03 13° 318° (NW) 13:26:06 435.215
O/OREOS (USA 219) 29 Mar 13:25:30 13:27:52 14° 54° (NE) 13:30:25 437.305
Oscar 19 29 Mar 13:35:58 13:40:57 55° 73° (ENE) 13:45:58 437.125/150
Gurwin Techsat 1B 29 Mar 13:51:45 13:55:33 21° 66° (ENE) 13:59:30 435.225
AO-7 29 Mar 14:02:44 14:04:19 11° 47° (NE) 14:06:28 29.400- 29.500
ITUPSAT 1 29 Mar 14:02:59 14:06:38 22° 93° (E) 14:10:23 437.325
TISAT 1 29 Mar 14:06:42 14:10:42 44° 287° (WNW) 14:14:41 437.305
CUBEBUG 1 29 Mar 14:10:09 14:11:06 10° 296° (WNW) 14:11:48 437.445
SPROUT 29 Mar 14:17:00 14:20:45 29° 289° (WNW) 14:24:25 437.525
HORYU 2 29 Mar 14:38:47 14:39:42 11° 64° (ENE) 14:40:53 437.375
ITAMSAT 1 29 Mar 14:41:03 14:46:15 75° 75° (ENE) 14:51:30 435.822/435.867
SWISSCUBE 29 Mar 14:50:04 14:54:52 78° 103° (ESE) 14:59:39 437.505
BEESAT 29 Mar 14:53:02 14:57:50 77° 101° (E) 15:02:37 436.000
PCSat 29 Mar 14:56:53 15:02:03 50° 113° (ESE) 15:07:18 145.827
AIST 1 29 Mar 14:59:07 15:01:47 16° 71° (ENE) 15:04:35
KKS-1 29 Mar 15:03:04 15:05:51 17° 92° (E) 15:08:49 437.445
O/OREOS (USA 219) 29 Mar 15:03:18 15:07:46 58° 252° (WSW) 15:12:10 437.305
YUBILEINY 29 Mar 15:10:40 15:19:19 58° 283° (WNW) 15:27:59 435.215
JAS-2 29 Mar 15:11:56 15:16:42 21° 60° (ENE) 15:22:03 435.910
Oscar 19 29 Mar 15:17:33 15:20:44 16° 270° (W) 15:23:42 437.125/150
JUGNU 29 Mar 15:29:44 15:31:39 12° 175° (S) 15:33:36 437.505
Gurwin Techsat 1B 29 Mar 15:30:05 15:35:12 48° 261° (W) 15:40:21 435.225
STARS 29 Mar 15:34:34 15:38:04 23° 94° (E) 15:41:39 437.465
ITUPSAT 1 29 Mar 15:40:16 15:44:40 36° 289° (WNW) 15:48:59 437.325
AO-7 29 Mar 15:47:32 15:55:28 54° 66° (ENE) 16:03:29 29.400- 29.500
HORYU 2 29 Mar 16:11:25 16:15:50 71° 258° (WSW) 16:20:17 437.375
ITAMSAT 1 29 Mar 16:24:26 16:26:26 12° 272° (W) 16:28:05 435.822/435.867
SRMSAT 29 Mar 16:30:13 16:30:55 10° 172° (S) 16:31:40 437.500
SWISSCUBE 29 Mar 16:30:34 16:32:10 11° 297° (WNW) 16:33:29 437.505
BEESAT 29 Mar 16:33:27 16:35:07 11° 297° (WNW) 16:36:32 436.000
AIST 1 29 Mar 16:35:41 16:39:40 36° 268° (W) 16:43:34
KKS-1 29 Mar 16:38:33 16:42:44 41° 288° (WNW) 16:46:53 437.445
MOZHAYETS 4 29 Mar 16:40:12 16:40:36 10° 87° (E) 16:41:20
PCSat 29 Mar 16:41:24 16:45:47 24° 311° (NW) 16:50:05 145.827
JAS-2 29 Mar 16:54:03 17:00:52 80° 258° (WSW) 17:08:30 435.910
Cubesat XI-IV 29 Mar 17:07:19 17:08:14 11° 60° (ENE) 17:09:30 437.490
CUTE-I 29 Mar 17:07:22 17:08:02 10° 60° (ENE) 17:09:03 437.470
STARS 29 Mar 17:10:44 17:14:33 29° 290° (WNW) 17:18:18 437.465
JUGNU 29 Mar 17:18:03 17:19:48 11° 186° (S) 17:21:30 437.505
AUBIESAT-1 29 Mar 17:31:37 17:32:52 11° 92° (E) 17:34:27 437.475
RS-15 29 Mar 17:36:47 17:41:27 15° 100° (E) 17:47:06 29.354- 29.394
AO-7 29 Mar 17:41:17 17:48:37 33° 264° (W) 17:55:45 29.400- 29.500
M-CUBED/EXP-1 PRIME 29 Mar 17:54:03 17:57:51 23° 97° (E) 18:01:40 437.505
MOZHAYETS 4 29 Mar 18:13:47 18:18:26 71° 284° (WNW) 18:23:02
SRMSAT 29 Mar 18:17:05 18:19:12 12° 182° (S) 18:21:19 437.500
CUBESAT XI-V 29 Mar 18:27:08 18:27:55 11° 87° (E) 18:29:03 437.345
CUTE-I 29 Mar 18:42:01 18:47:23 82° 76° (ENE) 18:52:47 437.470
Cubesat XI-IV 29 Mar 18:42:14 18:47:36 83° 76° (ENE) 18:53:01 437.490
JAS-2 29 Mar 18:44:28 18:47:26 12° 279° (W) 18:49:53 435.910
BEESAT 2 29 Mar 18:51:50 18:54:36 17° 46° (NE) 18:57:27 435.950
AUBIESAT-1 29 Mar 19:03:26 19:08:18 75° 288° (WNW) 19:12:59 437.475
PRISM 29 Mar 19:10:25 19:13:47 24° 95° (E) 19:17:11 437.425
STRAND 1 29 Mar 19:15:27 19:19:07 20° 92° (E) 19:22:56 437.568
SO-50 29 Mar 19:15:56 19:20:28 63° 118° (ESE) 19:25:11 436.795
HO-68 29 Mar 19:26:14 19:30:14 17° 57° (ENE) 19:34:36 435.675
BEESAT 3 29 Mar 19:27:59 19:31:56 43° 54° (NE) 19:35:49 437.485
M-CUBED/EXP-1 PRIME 29 Mar 19:28:19 19:32:49 38° 294° (WNW) 19:37:11 437.505
GONETS M04 29 Mar 19:28:31 19:36:32 46° 89° (E) 19:44:45
RS-15 29 Mar 19:41:24 19:52:13 76° 117° (ESE) 20:03:15 29.354- 29.394
BRITE-PL 29 Mar 19:52:36 19:55:53 20° 70° (ENE) 19:59:10 437.365/2234.400
CUBESAT XI-V 29 Mar 20:01:20 20:05:57 67° 285° (WNW) 20:10:30 437.345
AIST 2 29 Mar 20:04:07 20:07:57 32° 51° (NE) 20:11:44 435.215
CANX-2 29 Mar 20:24:14 20:27:33 23° 70° (ENE) 20:30:59 2200.000
DOVE 4 29 Mar 20:26:21 20:29:13 18° 69° (ENE) 20:32:09 437.250
CUTE-I 29 Mar 20:26:34 20:28:13 11° 273° (W) 20:29:29 437.470
Cubesat XI-IV 29 Mar 20:26:59 20:28:29 11° 273° (W) 20:29:35 437.490
BEESAT 2 29 Mar 20:29:04 20:33:03 46° 244° (WSW) 20:36:56 435.950
GOMX 1 29 Mar 20:37:22 20:41:29 36° 73° (ENE) 20:45:26 467.674
CUTE 1.7 + AOD 2 29 Mar 20:37:45 20:41:25 30° 71° (ENE) 20:45:09 437.475
PRISM 29 Mar 20:45:45 20:49:14 25° 290° (WNW) 20:52:37 437.425
STRAND 1 29 Mar 20:53:44 20:58:34 43° 289° (WNW) 21:03:21 437.568
SO-50 29 Mar 20:58:17 21:01:31 18° 318° (NW) 21:04:42 436.795
CUSAT 1 29 Mar 20:59:17 21:01:31 21° 96° (E) 21:03:37 437.405
AAUSAT CUBESAT 2 29 Mar 21:01:18 21:05:00 32° 72° (ENE) 21:08:45 437.432
SEEDS 29 Mar 21:06:10 21:10:14 52° 75° (ENE) 21:14:23 437.485
BEESAT 3 29 Mar 21:07:10 21:09:39 15° 250° (WSW) 21:11:59 437.485
HO-68 29 Mar 21:09:56 21:17:06 88° 77° (ENE) 21:24:20 435.675
GONETS M04 29 Mar 21:25:38 21:33:35 37° 288° (WNW) 21:41:26
COMPASS 1 29 Mar 21:28:07 21:32:16 79° 77° (ENE) 21:36:30 437.405
Oscar 11 29 Mar 21:28:29 21:32:15 31° 71° (ENE) 21:36:07 145.826/435.025
BRITE-PL 29 Mar 21:29:52 21:34:17 37° 262° (W) 21:38:24 437.365/2234.400
CINEMA 3 29 Mar 21:39:50 21:43:59 60° 75° (ENE) 21:48:05 145.822/145.860
FUNcube-1 29 Mar 21:40:25 21:43:26 20° 69° (ENE) 21:46:33 145.935
AIST 2 29 Mar 21:43:01 21:46:24 23° 248° (WSW) 21:49:38 435.215
UWE-3 29 Mar 21:44:51 21:48:24 29° 71° (ENE) 21:52:01 435.000/436.395/437.385
DANDE 29 Mar 21:49:32 21:52:44 78° 281° (W) 21:55:27 436.750
CUBEBUG 2 29 Mar 21:50:08 21:54:00 40° 73° (ENE) 21:57:55 437.445
ZACube-1 29 Mar 21:52:50 21:56:22 28° 71° (ENE) 21:59:58 437.345
VELOX 1 29 Mar 21:54:02 21:54:46 11° 64° (ENE) 21:55:47 145.980
RS-15 29 Mar 21:56:07 22:05:48 34° 322° (NW) 22:15:32 29.354- 29.394
AISAT 29 Mar 21:57:51 21:59:32 12° 65° (ENE) 22:01:26 437.250
CANX-2 29 Mar 21:59:46 22:03:24 27° 265° (W) 22:07:01 2200.000
DOVE 4 29 Mar 22:02:48 22:06:50 35° 263° (W) 22:10:42 437.250
DELFI C3 29 Mar 22:13:57 22:18:01 81° 77° (ENE) 22:22:08 145.870
CUTE 1.7 + AOD 2 29 Mar 22:14:08 22:17:24 21° 267° (W) 22:20:35 437.475
GOMX 1 29 Mar 22:16:39 22:19:46 18° 267° (W) 22:22:39 467.674
ESTCUBE 1 29 Mar 22:27:58 22:30:00 13° 65° (ENE) 22:32:17 437.505/2401.250
UKube-1 29 Mar 22:34:28 22:38:46 68° 75° (ENE) 22:43:05 .
AAUSAT CUBESAT 2 29 Mar 22:37:42 22:40:44 19° 268° (W) 22:43:40 437.432
HUMSAT D 29 Mar 22:40:51 22:44:48 50° 74° (ENE) 22:48:48 437.325/437.525
ANTELSAT 29 Mar 22:40:55 22:42:55 13° 90° (E) 22:45:11 437.575/2403.000
SEEDS 29 Mar 22:44:52 22:46:28 12° 271° (W) 22:47:49 437.485
DX 1 29 Mar 22:45:02 22:49:24 86° 257° (WSW) 22:53:47 434.975-435.025
HO-68 29 Mar 23:01:49 23:05:52 15° 272° (W) 23:09:25 435.675
Oscar 11 29 Mar 23:05:13 23:08:31 21° 267° (W) 23:11:44 145.826/435.025
ISS 29 Mar 23:05:21 23:08:36 75° 138° (SE) 23:11:51 145.825
FUNcube-1 29 Mar 23:16:00 23:19:38 29° 264° (W) 23:23:16 145.935
POPSAT HIP 1 29 Mar 23:18:21 23:20:45 15° 91° (E) 23:23:20 437.405
UWE-3 29 Mar 23:21:52 23:25:01 20° 267° (W) 23:28:04 435.000/436.395/437.385
50 SAT 29 Mar 23:23:13 23:27:07 74° 258° (WSW) 23:31:03 437.505
CUBEBUG 1 29 Mar 23:25:36 23:29:49 47° 74° (ENE) 23:34:04 437.445
VELOX 1 29 Mar 23:26:23 23:30:50 73° 258° (WSW) 23:35:17 145.980
NANOSAT C BR1 29 Mar 23:28:17 23:31:20 20° 93° (E) 23:34:31 145.865
CUBEBUG 2 29 Mar 23:28:38 23:30:59 14° 269° (W) 23:33:09 437.445
YUBILEINY 29 Mar 23:29:31 23:32:15 12° 56° (NE) 23:35:43 435.215
ZACube-1 29 Mar 23:29:37 23:32:48 20° 267° (W) 23:35:53 437.345
AISAT 29 Mar 23:31:17 23:35:41 62° 259° (W) 23:40:06 437.250
POLYITAN 1 29 Mar 23:32:37 23:35:57 23° 94° (E) 23:39:24 437.675
UNISAT 6 29 Mar 23:35:00 23:39:29 51° 99° (E) 23:44:03 437.425
SPROUT 29 Mar 23:35:17 23:37:39 15° 67° (ENE) 23:40:12 437.525
TIGRISAT 29 Mar 23:45:01 23:49:35 64° 101° (E) 23:54:13 435.000
PCSat 29 Mar 23:46:20 23:51:05 31° 52° (NE) 23:55:53 145.827
ESTCUBE 1 30 Mar 00:01:57 00:06:27 60° 260° (W) 00:10:57 437.505/2401.250
QB50P1 30 Mar 00:09:02 00:13:13 61° 100° (E) 00:17:25 145.935-145.965
DUCHIFAT 1 30 Mar 00:10:40 00:14:52 62° 101° (ESE) 00:19:03 145.980
ANTELSAT 30 Mar 00:15:36 00:20:07 57° 285° (WNW) 00:24:42 437.575/2403.000
RS-15 30 Mar 00:16:32 00:23:07 17° 356° (N) 00:29:47 29.354- 29.394
HUMSAT D 30 Mar 00:19:31 00:20:58 11° 271° (W) 00:22:10 437.325/437.525
QB50P2 30 Mar 00:23:58 00:28:14 87° 283° (WNW) 00:32:29 145.880/145.840
ISS 30 Mar 00:43:04 00:45:20 17° 337° (NNW) 00:47:34 145.825
BUGSAT 1 30 Mar 00:49:51 00:53:50 61° 285° (WNW) 00:57:48 437.445
POPSAT HIP 1 30 Mar 00:52:53 00:56:53 40° 287° (WNW) 01:00:50 437.405
TISAT 1 30 Mar 00:57:10 01:01:24 74° 259° (WSW) 01:05:37 437.305
NANOSAT C BR1 30 Mar 01:03:31 01:07:17 31° 289° (WNW) 01:10:59 145.865
CUBEBUG 1 30 Mar 01:04:02 01:06:31 14° 269° (W) 01:08:46 437.445
POLYITAN 1 30 Mar 01:08:16 01:11:53 27° 289° (WNW) 01:15:28 437.675
ITUPSAT 1 30 Mar 01:08:42 01:12:23 23° 68° (ENE) 01:16:11 437.325
SPROUT 30 Mar 01:09:18 01:13:26 45° 261° (W) 01:17:33 437.525
UNISAT 6 30 Mar 01:13:08 01:15:56 16° 293° (WNW) 01:18:35 437.425
YUBILEINY 30 Mar 01:22:28 01:31:16 68° 80° (E) 01:39:59 435.215
TIGRISAT 30 Mar 01:23:48 01:25:54 13° 295° (WNW) 01:27:46 435.000
PCSat 30 Mar 01:29:37 01:34:34 36° 250° (WSW) 01:39:27 145.827
QB50P1 30 Mar 01:47:14 01:48:39 11° 295° (WNW) 01:49:52 145.935-145.965
DUCHIFAT 1 30 Mar 01:48:58 01:50:15 11° 295° (WNW) 01:51:17 145.980
Oscar 19 30 Mar 01:49:39 01:53:34 22° 93° (E) 01:57:37 437.125/150
SWISSCUBE 30 Mar 01:55:05 01:59:52 75° 75° (ENE) 02:04:42 437.505
BEESAT 30 Mar 01:57:58 02:02:44 74° 76° (ENE) 02:07:34 436.000
KKS-1 30 Mar 02:00:58 02:03:08 14° 66° (ENE) 02:05:30 437.445
STARS 30 Mar 02:30:56 02:33:52 18° 67° (ENE) 02:36:57 437.465
RS-15 30 Mar 02:32:01 02:41:04 27° 31° (NNE) 02:50:44 29.354- 29.394
ITUPSAT 1 30 Mar 02:45:39 02:50:06 36° 263° (W) 02:54:32 437.325
ITAMSAT 1 30 Mar 02:55:52 03:00:21 30° 96° (E) 03:04:51 435.822/435.867
YUBILEINY 30 Mar 03:20:41 03:27:24 24° 277° (W) 03:33:44 435.215
Oscar 19 30 Mar 03:28:15 03:33:06 41° 289° (WNW) 03:37:56 437.125/150
AIST 1 30 Mar 03:29:31 03:30:13 10° 86° (E) 03:31:13
KKS-1 30 Mar 03:35:03 03:39:23 53° 260° (W) 03:43:44 437.445
O/OREOS (USA 219) 30 Mar 03:36:04 03:39:14 19° 102° (ESE) 03:42:33 437.305
SWISSCUBE 30 Mar 03:37:44 03:38:23 10° 272° (W) 03:38:40 437.505
BEESAT 30 Mar 03:40:22 03:41:14 10° 272° (W) 03:41:45 436.000
Gurwin Techsat 1B 30 Mar 03:47:28 03:52:49 77° 102° (ESE) 03:58:08 435.225
SO-50 30 Mar 03:48:49 03:53:29 40° 52° (NE) 03:58:08 436.795
AO-7 30 Mar 03:52:33 03:57:15 17° 89° (E) 04:02:30 29.400- 29.500
ISS 30 Mar 03:58:56 04:00:24 12° 17° (NNE) 04:01:55 145.825
HORYU 2 30 Mar 04:04:43 04:08:23 24° 95° (E) 04:12:05 437.375
STARS 30 Mar 04:06:01 04:10:06 37° 262° (W) 04:14:10 437.465
JAS-2 30 Mar 04:07:15 04:12:15 19° 86° (E) 04:17:20 435.910
AUBIESAT-1 30 Mar 04:19:02 04:20:07 11° 57° (ENE) 04:21:28 437.475
ITAMSAT 1 30 Mar 04:35:18 04:39:50 31° 291° (WNW) 04:44:18 435.822/435.867
M-CUBED/EXP-1 PRIME 30 Mar 04:41:45 04:44:50 22° 62° (ENE) 04:48:13 437.505
RS-15 30 Mar 04:44:10 04:55:44 79° 57° (ENE) 05:07:50 29.354- 29.394
VERMONT LUNAR 30 Mar 04:55:14 04:57:48 21° 149° (SSE) 05:00:25 437.305
AIST 1 30 Mar 05:03:04 05:07:25 59° 279° (W) 05:11:46
MOZHAYETS 4 30 Mar 05:14:01 05:18:38 89° 259° (W) 05:23:18
O/OREOS (USA 219) 30 Mar 05:14:07 05:18:25 38° 297° (WNW) 05:22:42 437.305
Gurwin Techsat 1B 30 Mar 05:29:35 05:32:13 13° 297° (WNW) 05:34:35 435.225
SO-50 30 Mar 05:29:50 05:33:52 24° 248° (WSW) 05:37:43 436.795
CUBESAT XI-V 30 Mar 05:30:27 05:30:49 10° 63° (ENE) 05:31:29 437.345
ISS 30 Mar 05:34:15 05:37:25 53° 35° (NE) 05:40:35 145.825
PHONESAT 2.4 30 Mar 05:40:57 05:43:37 21° 148° (SSE) 05:46:20 2401.200-2431.200
HORYU 2 30 Mar 05:41:06 05:45:02 29° 290° (WNW) 05:48:53 437.375
GONETS M04 30 Mar 05:41:09 05:47:10 21° 63° (ENE) 05:53:38
AO-7 30 Mar 05:42:53 05:51:14 89° 284° (WNW) 05:59:33 29.400- 29.500
AUBIESAT-1 30 Mar 05:50:20 05:54:18 71° 254° (WSW) 05:58:40 437.475
JAS-2 30 Mar 05:50:28 05:58:15 77° 286° (WNW) 06:05:18 435.910
PRISM 30 Mar 06:00:16 06:02:48 16° 67° (ENE) 06:05:29 437.425
M-CUBED/EXP-1 PRIME 30 Mar 06:16:00 06:19:34 31° 260° (W) 06:23:23 437.505
STRAND 1 30 Mar 06:29:53 06:34:04 27° 68° (ENE) 06:38:22 437.568
VERMONT LUNAR 30 Mar 06:31:53 06:35:14 84° 167° (SSE) 06:38:36 437.305
RS-15 30 Mar 06:57:59 07:07:18 27° 255° (WSW) 07:16:21 29.354- 29.394
CUTE-I 30 Mar 07:00:57 07:05:49 36° 97° (E) 07:10:42 437.470
Cubesat XI-IV 30 Mar 07:01:21 07:06:14 37° 97° (E) 07:11:09 437.490
CUBESAT XI-V 30 Mar 07:02:57 07:07:40 83° 256° (WSW) 07:12:25 437.345
ISS 30 Mar 07:11:46 07:13:31 14° 230° (SW) 07:15:12 145.825
PHONESAT 2.4 30 Mar 07:18:09 07:21:40 80° 164° (SSE) 07:25:12 2401.200-2431.200
PRISM 30 Mar 07:34:01 07:38:00 40° 262° (W) 07:42:00 437.425
CUSAT 1 30 Mar 07:34:28 07:38:07 24° 77° (ENE) 07:42:48 437.405
GONETS M04 30 Mar 07:36:22 07:45:13 80° 265° (W) 07:54:03
AO-7 30 Mar 07:37:26 07:43:05 20° 306° (NW) 07:48:22 29.400- 29.500
JAS-2 30 Mar 07:37:47 07:42:04 15° 304° (WNW) 07:45:48 435.910
